When you browse on this site, cookies collect data to enhance your experience and personalize the content and advertising you see.
Visit our Privacy Policy to learn more. By continuing to use the site, you agree to this use of cookies and data.
  • En España
  • Lista de países
  • Para 7 días
  • Temperatura del agua
  • El tiempo en el mapa
  • Informadores
  • user-avatar
    Iniciar sesión

    Tiempo cada hora Annaba

    Hoy, 25 Agosto, Domingo

    Tiempo Temperatura Precipitaciones Viento Presión Humedad
    00:00 +26°C° 0 mm 1 mps 760 mmHg 83%
    01:00 +26°C° 0 mm 1 mps 760 mmHg 86%
    02:00 +26°C° 0 mm 1 mps 760 mmHg 87%
    03:00 +26°C° 0 mm 1 mps 760 mmHg 88%
    04:00 +26°C° 0 mm 1 mps 760 mmHg 88%
    05:00 +26°C° 0 mm 1 mps 760 mmHg 87%
    06:00 +26°C° 0 mm 1 mps 760 mmHg 85%
    07:00 +27°C° 0 mm 1 mps 760 mmHg 82%
    08:00 +27°C° 0 mm 1 mps 760 mmHg 79%
    09:00 +28°C° 0 mm 1 mps 760 mmHg 76%
    10:00 +29°C° 0 mm 1 mps 760 mmHg 73%
    11:00 +30°C° 0 mm 2 mps 760 mmHg 68%
    12:00 +31°C° 0 mm 2 mps 760 mmHg 63%
    13:00 +33°C° 0 mm 3 mps 760 mmHg 59%
    14:00 +33°C° 0 mm 3 mps 760 mmHg 59%
    15:00 +33°C° 0 mm 4 mps 759 mmHg 60%
    16:00 +33°C° 0 mm 5 mps 759 mmHg 60%
    17:00 +32°C° 0.2 mm 4 mps 759 mmHg 66%
    18:00 +29°C° 0.2 mm 3 mps 759 mmHg 72%
    19:00 +28°C° 0.2 mm 3 mps 759 mmHg 78%
    20:00 +28°C° 0.1 mm 3 mps 760 mmHg 80%
    21:00 +27°C° 0.1 mm 3 mps 760 mmHg 81%
    22:00 +27°C° 0.1 mm 2 mps 760 mmHg 83%
    23:00 +27°C° 0 mm 2 mps 760 mmHg 84%

    Mañana, 26 Agosto, Lunes

    Tiempo Temperatura Precipitaciones Viento Presión Humedad
    00:00 +27°C° 0 mm 2 mps 760 mmHg 85%
    01:00 +26°C° 0 mm 1 mps 759 mmHg 86%
    02:00 +26°C° 0 mm 1 mps 759 mmHg 87%
    03:00 +26°C° 0 mm 1 mps 759 mmHg 87%
    04:00 +26°C° 0 mm 1 mps 759 mmHg 88%
    05:00 +26°C° 0 mm 1 mps 759 mmHg 86%
    06:00 +27°C° 0 mm 1 mps 759 mmHg 85%
    07:00 +27°C° 0 mm 1 mps 759 mmHg 83%
    08:00 +29°C° 0 mm 1 mps 759 mmHg 74%
    09:00 +31°C° 0 mm 1 mps 760 mmHg 64%
    10:00 +33°C° 0 mm 1 mps 760 mmHg 55%
    11:00 +35°C° 0 mm 2 mps 759 mmHg 52%
    12:00 +36°C° 0 mm 3 mps 759 mmHg 49%
    13:00 +37°C° 0 mm 3 mps 759 mmHg 45%
    14:00 +37°C° 0 mm 4 mps 759 mmHg 47%
    15:00 +36°C° 0 mm 4 mps 758 mmHg 49%
    16:00 +36°C° 0 mm 5 mps 758 mmHg 51%
    17:00 +34°C° 0 mm 5 mps 758 mmHg 55%
    18:00 +33°C° 0 mm 4 mps 758 mmHg 60%
    19:00 +32°C° 0 mm 4 mps 758 mmHg 65%
    20:00 +30°C° 0 mm 3 mps 759 mmHg 67%
    21:00 +29°C° 0 mm 2 mps 759 mmHg 70%
    22:00 +29°C° 0 mm 1 mps 759 mmHg 73%
    23:00 +28°C° 0 mm 1 mps 759 mmHg 74%

    Pasado mañana, 27 Agosto, Martes

    Tiempo Temperatura Precipitaciones Viento Presión Humedad
    00:00 +28°C° 0 mm 1 mps 759 mmHg 75%
    01:00 +28°C° 0 mm 1 mps 759 mmHg 76%
    02:00 +28°C° 0 mm 1 mps 759 mmHg 78%
    03:00 +27°C° 0 mm 1 mps 759 mmHg 79%
    04:00 +27°C° 0 mm 1 mps 758 mmHg 81%
    05:00 +28°C° 0 mm 1 mps 758 mmHg 78%
    06:00 +26°C° 0 mm 0 mps 759 mmHg 74%
    07:00 +27°C° 0 mm 0 mps 759 mmHg 71%
    08:00 +30°C° 0 mm 1 mps 759 mmHg 64%
    09:00 +32°C° 0 mm 2 mps 759 mmHg 56%
    10:00 +35°C° 0 mm 2 mps 760 mmHg 49%
    11:00 +36°C° 0 mm 3 mps 760 mmHg 47%
    12:00 +36°C° 0 mm 3 mps 760 mmHg 46%
    13:00 +37°C° 0 mm 4 mps 760 mmHg 45%
    14:00 +36°C° 0 mm 4 mps 759 mmHg 47%
    15:00 +36°C° 0 mm 4 mps 759 mmHg 49%
    16:00 +35°C° 0 mm 4 mps 759 mmHg 51%
    17:00 +33°C° 0.2 mm 4 mps 759 mmHg 58%
    18:00 +32°C° 0.2 mm 5 mps 759 mmHg 66%
    19:00 +29°C° 0.2 mm 5 mps 759 mmHg 73%
    20:00 +29°C° 0 mm 4 mps 759 mmHg 71%
    21:00 +29°C° 0 mm 3 mps 760 mmHg 69%
    22:00 +28°C° 0 mm 3 mps 760 mmHg 67%
    23:00 +28°C° 0 mm 2 mps 759 mmHg 65%

    28 Agosto, Miércoles

    Tiempo Temperatura Precipitaciones Viento Presión Humedad
    00:00 +28°C° 0 mm 2 mps 759 mmHg 64%
    01:00 +29°C° 0 mm 2 mps 759 mmHg 62%
    02:00 +29°C° 0 mm 2 mps 759 mmHg 61%
    03:00 +29°C° 0 mm 2 mps 758 mmHg 61%
    04:00 +29°C° 0 mm 2 mps 758 mmHg 60%
    05:00 +29°C° 0 mm 2 mps 758 mmHg 59%
    06:00 +29°C° 0 mm 2 mps 759 mmHg 58%
    07:00 +30°C° 0 mm 2 mps 759 mmHg 56%
    08:00 +30°C° 0 mm 2 mps 759 mmHg 56%
    09:00 +31°C° 0 mm 3 mps 759 mmHg 55%
    10:00 +33°C° 0 mm 3 mps 759 mmHg 55%
    11:00 +33°C° 0.1 mm 4 mps 759 mmHg 55%
    12:00 +33°C° 0.1 mm 4 mps 759 mmHg 56%
    13:00 +32°C° 0.1 mm 5 mps 759 mmHg 56%
    14:00 +33°C° 0.1 mm 4 mps 759 mmHg 56%
    15:00 +33°C° 0.1 mm 4 mps 759 mmHg 55%
    16:00 +33°C° 0.1 mm 3 mps 759 mmHg 55%
    17:00 +31°C° 0.1 mm 3 mps 759 mmHg 59%
    18:00 +30°C° 0.1 mm 2 mps 759 mmHg 63%
    19:00 +28°C° 0.1 mm 2 mps 759 mmHg 67%
    20:00 +28°C° 0 mm 2 mps 760 mmHg 70%
    21:00 +27°C° 0 mm 2 mps 760 mmHg 72%
    22:00 +27°C° 0 mm 3 mps 760 mmHg 75%
    23:00 +26°C° 0 mm 3 mps 760 mmHg 76%

    29 Agosto, Jueves

    Tiempo Temperatura Precipitaciones Viento Presión Humedad
    00:00 +26°C° 0 mm 2 mps 760 mmHg 78%
    01:00 +26°C° 0 mm 2 mps 760 mmHg 79%
    02:00 +26°C° 0 mm 2 mps 760 mmHg 80%
    03:00 +25°C° 0 mm 2 mps 760 mmHg 81%
    04:00 +25°C° 0 mm 1 mps 760 mmHg 82%
    05:00 +25°C° 0 mm 1 mps 760 mmHg 81%
    06:00 +26°C° 0 mm 1 mps 760 mmHg 80%
    07:00 +26°C° 0 mm 1 mps 760 mmHg 79%
    08:00 +27°C° 0 mm 1 mps 761 mmHg 72%
    09:00 +29°C° 0 mm 1 mps 761 mmHg 64%
    10:00 +31°C° 0 mm 1 mps 761 mmHg 57%
    11:00 +31°C° 0 mm 2 mps 761 mmHg 55%
    12:00 +33°C° 0 mm 3 mps 761 mmHg 52%
    13:00 +34°C° 0 mm 3 mps 760 mmHg 50%
    14:00 +33°C° 0 mm 3 mps 760 mmHg 51%
    15:00 +33°C° 0 mm 4 mps 760 mmHg 53%
    16:00 +32°C° 0 mm 4 mps 759 mmHg 54%
    17:00 +30°C° 0 mm 3 mps 760 mmHg 59%
    18:00 +29°C° 0 mm 3 mps 760 mmHg 64%
    19:00 +28°C° 0 mm 2 mps 760 mmHg 69%
    20:00 +27°C° 0 mm 2 mps 760 mmHg 73%
    21:00 +26°C° 0 mm 2 mps 761 mmHg 76%
    22:00 +26°C° 0 mm 1 mps 761 mmHg 80%
    23:00 +25°C° 0 mm 1 mps 761 mmHg 80%

    30 Agosto, Viernes

    Tiempo Temperatura Precipitaciones Viento Presión Humedad
    00:00 +25°C° 0 mm 1 mps 761 mmHg 81%
    01:00 +25°C° 0 mm 1 mps 761 mmHg 82%
    02:00 +23°C° 0 mm 0 mps 761 mmHg 83%
    03:00 +22°C° 0 mm 0 mps 760 mmHg 83%
    04:00 +22°C° 0 mm 0 mps 760 mmHg 84%
    05:00 +23°C° 0 mm 0 mps 760 mmHg 82%
    06:00 +23°C° 0 mm 0 mps 761 mmHg 79%
    07:00 +25°C° 0 mm 1 mps 761 mmHg 77%
    08:00 +27°C° 0 mm 1 mps 761 mmHg 68%
    09:00 +29°C° 0 mm 1 mps 761 mmHg 60%
    10:00 +31°C° 0 mm 1 mps 761 mmHg 51%
    11:00 +32°C° 0 mm 2 mps 761 mmHg 49%
    12:00 +32°C° 0 mm 2 mps 761 mmHg 47%
    13:00 +34°C° 0 mm 3 mps 761 mmHg 45%
    14:00 +34°C° 0 mm 4 mps 760 mmHg 48%
    15:00 +33°C° 0 mm 4 mps 760 mmHg 52%
    16:00 +32°C° 0 mm 4 mps 759 mmHg 56%
    17:00 +30°C° 0 mm 3 mps 760 mmHg 61%
    18:00 +29°C° 0 mm 2 mps 760 mmHg 66%
    19:00 +28°C° 0 mm 1 mps 760 mmHg 71%
    20:00 +28°C° 0 mm 1 mps 760 mmHg 73%
    21:00 +28°C° 0 mm 1 mps 761 mmHg 75%
    22:00 +27°C° 0 mm 1 mps 761 mmHg 77%
    23:00 +27°C° 0.1 mm 1 mps 761 mmHg 78%
    Mostrar más